Find MisrSat 1

NORAD ID: 31117 Int'l Des: 2007-012 Owner: NARSS Country: EG operational
LEOCIRCULARRETROGRADESSO

Live Position

Loading 3D Globe...

About MisrSat 1

Description loading...

Upcoming Passes

Passes for default location (London). Set your location on the main map for personalized predictions.

Altitude History

Loading altitude history...

Two-Line Element Set

1 31117U 07012A 26105.43592028 .00000587 00000-0 85426-4 0 9999
2 31117 98.0546 61.4468 0003807 320.6957 39.3977 14.79625490 20430
Epoch: Apr 15, 2026 • Age: 14 hours

Current Status

Altitude 652.9 km
Velocity 7.53 km/s
Sub-Earth Point -59.29°S, 16.23°E
Launch Date Apr 17, 2007
Age 18.9 years
Type other

Technical Details

Classification Payload
Mass 165.00 kg
Dry Mass 165.00 kg
Total Mass 165.00 kg
Length 0.50 m
Diameter 0.50 m
Span 2.00 m
Shape Box + 4 Pan + Ant
Manufacturer YUZHUA
Bus Type Egyptsat
Phase Status In Orbit
Owner/State NARSS/EG

Most Searched